When you browse on this site, cookies collect data to enhance your experience and personalize the content and advertising you see.
Visit our Privacy Policy to learn more. By continuing to use the site, you agree to this use of cookies and data.
  • In Portugal
  • List of Countries
  • For 7 days
  • Water Temperature
  • Satellite Maps
  • Weather Map
  • Weather Widgets
  • user-avatar
    Login

    Hourly Weather Bershad

    Today, 19 April, Friday

    Time Temperature Precipitation Wind Pressure Humidity
    00:00 +8°C° 0 mm 1 mps 749 mmHg 68%
    01:00 +8°C° 0 mm 1 mps 749 mmHg 70%
    02:00 +8°C° 0 mm 1 mps 748 mmHg 72%
    03:00 +8°C° 0.5 mm 1 mps 748 mmHg 77%
    04:00 +8°C° 0.5 mm 1 mps 748 mmHg 82%
    05:00 +6°C° 0.5 mm 0 mps 748 mmHg 86%
    06:00 +8°C° 0.2 mm 1 mps 748 mmHg 83%
    07:00 +8°C° 0.2 mm 2 mps 748 mmHg 79%
    08:00 +9°C° 0 mm 3 mps 748 mmHg 76%
    09:00 +10°C° 0.6 mm 4 mps 749 mmHg 69%
    10:00 +10°C° 0.6 mm 5 mps 749 mmHg 62%
    11:00 +11°C° 0.6 mm 6 mps 749 mmHg 54%
    12:00 +12°C° 0.4 mm 5 mps 749 mmHg 52%
    13:00 +12°C° 0.4 mm 5 mps 749 mmHg 51%
    14:00 +12°C° 0.4 mm 5 mps 749 mmHg 49%
    15:00 +12°C° 0.1 mm 5 mps 750 mmHg 49%
    16:00 +10°C° 0.1 mm 5 mps 750 mmHg 48%
    17:00 +10°C° 0.1 mm 5 mps 750 mmHg 48%
    18:00 +10°C° 0 mm 4 mps 750 mmHg 52%
    19:00 +8°C° 0 mm 4 mps 751 mmHg 56%
    20:00 +7°C° 0 mm 3 mps 751 mmHg 61%
    21:00 +7°C° 0 mm 3 mps 751 mmHg 64%
    22:00 +5°C° 0 mm 3 mps 751 mmHg 66%
    23:00 +5°C° 0 mm 3 mps 752 mmHg 69%

    Tomorrow, 20 April, Saturday

    Time Temperature Precipitation Wind Pressure Humidity
    00:00 +4°C° 0 mm 3 mps 752 mmHg 71%
    01:00 +4°C° 0 mm 3 mps 752 mmHg 72%
    02:00 +4°C° 0 mm 3 mps 752 mmHg 74%
    03:00 +3°C° 0 mm 3 mps 752 mmHg 74%
    04:00 +3°C° 0 mm 3 mps 752 mmHg 75%
    05:00 +3°C° 0 mm 3 mps 752 mmHg 76%
    06:00 +4°C° 0 mm 3 mps 752 mmHg 71%
    07:00 +7°C° 0 mm 3 mps 752 mmHg 66%
    08:00 +8°C° 0 mm 3 mps 752 mmHg 61%
    09:00 +8°C° 0 mm 4 mps 752 mmHg 55%
    10:00 +10°C° 0 mm 4 mps 752 mmHg 48%
    11:00 +12°C° 0 mm 4 mps 752 mmHg 42%
    12:00 +12°C° 0 mm 4 mps 752 mmHg 42%
    13:00 +12°C° 0 mm 3 mps 752 mmHg 42%
    14:00 +12°C° 0 mm 3 mps 752 mmHg 42%
    15:00 +12°C° 0 mm 3 mps 751 mmHg 43%
    16:00 +13°C° 0 mm 2 mps 751 mmHg 43%
    17:00 +12°C° 0 mm 2 mps 751 mmHg 44%
    18:00 +12°C° 0 mm 2 mps 751 mmHg 46%
    19:00 +11°C° 0 mm 1 mps 751 mmHg 49%
    20:00 +10°C° 0 mm 1 mps 751 mmHg 52%
    21:00 +10°C° 0 mm 1 mps 751 mmHg 52%
    22:00 +10°C° 0 mm 1 mps 751 mmHg 53%
    23:00 +9°C° 0 mm 0 mps 750 mmHg 53%

    Day after tomorrow, 21 April, Sunday

    Time Temperature Precipitation Wind Pressure Humidity
    00:00 +10°C° 0 mm 1 mps 750 mmHg 54%
    01:00 +9°C° 0 mm 1 mps 750 mmHg 54%
    02:00 +9°C° 0 mm 1 mps 750 mmHg 55%
    03:00 +9°C° 0 mm 1 mps 750 mmHg 55%
    04:00 +9°C° 0 mm 1 mps 749 mmHg 56%
    05:00 +8°C° 0 mm 1 mps 749 mmHg 57%
    06:00 +9°C° 0 mm 1 mps 749 mmHg 55%
    07:00 +10°C° 0 mm 1 mps 750 mmHg 53%
    08:00 +10°C° 0 mm 2 mps 750 mmHg 51%
    09:00 +12°C° 0 mm 2 mps 750 mmHg 47%
    10:00 +12°C° 0 mm 2 mps 750 mmHg 43%
    11:00 +13°C° 0 mm 2 mps 750 mmHg 39%
    12:00 +12°C° 0 mm 3 mps 750 mmHg 39%
    13:00 +12°C° 0 mm 3 mps 750 mmHg 39%
    14:00 +13°C° 0 mm 3 mps 749 mmHg 39%
    15:00 +12°C° 0 mm 3 mps 749 mmHg 41%
    16:00 +12°C° 0 mm 3 mps 749 mmHg 42%
    17:00 +12°C° 0 mm 3 mps 749 mmHg 44%
    18:00 +11°C° 0 mm 3 mps 750 mmHg 47%
    19:00 +11°C° 0 mm 3 mps 750 mmHg 50%
    20:00 +10°C° 0 mm 2 mps 750 mmHg 53%
    21:00 +9°C° 0 mm 2 mps 750 mmHg 54%
    22:00 +9°C° 0 mm 2 mps 751 mmHg 56%
    23:00 +8°C° 0 mm 2 mps 751 mmHg 57%

    22 April, Monday

    Time Temperature Precipitation Wind Pressure Humidity
    00:00 +8°C° 0 mm 2 mps 751 mmHg 59%
    01:00 +8°C° 0 mm 2 mps 751 mmHg 60%
    02:00 +7°C° 0 mm 2 mps 751 mmHg 61%
    03:00 +7°C° 0 mm 2 mps 751 mmHg 61%
    04:00 +7°C° 0 mm 2 mps 751 mmHg 61%
    05:00 +7°C° 0 mm 2 mps 751 mmHg 60%
    06:00 +8°C° 0 mm 3 mps 751 mmHg 58%
    07:00 +9°C° 0 mm 3 mps 752 mmHg 55%
    08:00 +10°C° 0 mm 4 mps 752 mmHg 52%
    09:00 +11°C° 0 mm 4 mps 752 mmHg 49%
    10:00 +12°C° 0 mm 4 mps 752 mmHg 46%
    11:00 +12°C° 0 mm 4 mps 752 mmHg 44%
    12:00 +13°C° 0 mm 4 mps 752 mmHg 43%
    13:00 +13°C° 0 mm 4 mps 752 mmHg 43%
    14:00 +13°C° 0 mm 4 mps 752 mmHg 42%
    15:00 +13°C° 0 mm 4 mps 752 mmHg 43%
    16:00 +13°C° 0 mm 4 mps 752 mmHg 44%
    17:00 +13°C° 0 mm 4 mps 752 mmHg 44%
    18:00 +11°C° 0 mm 3 mps 752 mmHg 49%
    19:00 +10°C° 0 mm 3 mps 752 mmHg 54%
    20:00 +9°C° 0 mm 2 mps 753 mmHg 58%
    21:00 +8°C° 0 mm 2 mps 753 mmHg 60%
    22:00 +8°C° 0 mm 3 mps 753 mmHg 61%
    23:00 +8°C° 0 mm 3 mps 753 mmHg 63%

    23 April, Tuesday

    Time Temperature Precipitation Wind Pressure Humidity
    00:00 +7°C° 0 mm 3 mps 753 mmHg 65%
    01:00 +7°C° 0 mm 3 mps 753 mmHg 67%
    02:00 +5°C° 0 mm 3 mps 753 mmHg 69%
    03:00 +5°C° 0 mm 3 mps 753 mmHg 70%
    04:00 +5°C° 0 mm 3 mps 753 mmHg 71%
    05:00 +4°C° 0 mm 3 mps 753 mmHg 71%
    06:00 +7°C° 0 mm 3 mps 754 mmHg 67%
    07:00 +8°C° 0 mm 4 mps 754 mmHg 62%
    08:00 +10°C° 0 mm 4 mps 755 mmHg 57%
    09:00 +11°C° 0 mm 4 mps 755 mmHg 52%
    10:00 +13°C° 0 mm 5 mps 755 mmHg 47%
    11:00 +14°C° 0 mm 5 mps 755 mmHg 41%
    12:00 +14°C° 0 mm 5 mps 754 mmHg 41%
    13:00 +15°C° 0 mm 5 mps 754 mmHg 40%
    14:00 +15°C° 0 mm 5 mps 754 mmHg 39%
    15:00 +15°C° 0 mm 5 mps 753 mmHg 41%
    16:00 +14°C° 0 mm 5 mps 753 mmHg 42%
    17:00 +14°C° 0 mm 5 mps 753 mmHg 44%
    18:00 +13°C° 0 mm 4 mps 753 mmHg 48%
    19:00 +12°C° 0 mm 4 mps 753 mmHg 52%
    20:00 +10°C° 0 mm 4 mps 753 mmHg 56%
    21:00 +10°C° 0 mm 3 mps 753 mmHg 58%
    22:00 +9°C° 0 mm 3 mps 753 mmHg 59%
    23:00 +8°C° 0 mm 3 mps 753 mmHg 61%

    24 April, Wednesday

    Time Temperature Precipitation Wind Pressure Humidity
    00:00 +8°C° 0 mm 3 mps 753 mmHg 63%
    01:00 +7°C° 0 mm 3 mps 753 mmHg 65%
    02:00 +7°C° 0 mm 3 mps 753 mmHg 67%
    03:00 +5°C° 0 mm 3 mps 753 mmHg 67%
    04:00 +5°C° 0 mm 3 mps 753 mmHg 67%
    05:00 +5°C° 0 mm 3 mps 753 mmHg 67%
    06:00 +6°C° 0 mm 4 mps 754 mmHg 63%
    07:00 +8°C° 0 mm 4 mps 754 mmHg 59%
    08:00 +10°C° 0 mm 5 mps 754 mmHg 54%
    09:00 +12°C° 0 mm 5 mps 754 mmHg 50%
    10:00 +13°C° 0 mm 6 mps 754 mmHg 47%
    11:00 +14°C° 0 mm 6 mps 754 mmHg 43%
    12:00 +15°C° 0 mm 6 mps 754 mmHg 42%
    13:00 +16°C° 0 mm 5 mps 753 mmHg 41%
    14:00 +16°C° 0 mm 5 mps 753 mmHg 40%
    15:00 +16°C° 0 mm 5 mps 753 mmHg 41%
    16:00 +16°C° 0 mm 5 mps 753 mmHg 42%
    17:00 +17°C° 0 mm 4 mps 753 mmHg 43%
    18:00 +14°C° 0 mm 4 mps 753 mmHg 48%
    19:00 +13°C° 0 mm 3 mps 753 mmHg 53%
    20:00 +12°C° 0 mm 3 mps 753 mmHg 58%
    21:00 +11°C° 0 mm 3 mps 753 mmHg 60%
    22:00 +10°C° 0 mm 2 mps 753 mmHg 62%
    23:00 +9°C° 0 mm 2 mps 753 mmHg 64%
    Show more